Presure
174 174 153 179 175 158 158 153 160 186 189 207 226 219 217 207 207 186 189 226 191 199 203 197 178 211 199 199 190 202 198 176 193 193 181 190 192 183 184 198 203 215 207 186 174 127 177
151 190 192 157 153 183 180 192 160 173 165 186 184 170 168 173 182 184 210 183 183 181 188 190 192 193 194 193 195 185 188 192 200 206 214 204 171 169 193 207 193 171 196 198 151 178 180
155 180 170 180 154 171 181 167 189 165 181 199 195 186 148 175 209 149 162 158 158 162 182 196 173 164 153 156 159 185 186 192 185 174 170 151 176 197 166 168 170 165 219 199 218 185 174
157 171 186 158 142 152 185 183 157 168 185 152 180 165 144 189 189 144 191 207 175 182 201 195 185 160 197 212 198 191 195 166 188 182 155 195 195 204 158 229 153 233 220 216 198 215 192
160 172 164 163 174 161 163 157 172 168 176 190 141 175 180 134 177 177 189 159 170 179 168 170 154 178 183 181 183 184 146 164 174 185 181 202 190 197 199 208 141 215 184 158 183 172 187
171 162 142 172 146 156 173 166 151 159 156 151 174 158 180 150 175 180 176 182 160 170 182 146 175 171 168 172 180 179 179 186 168 178 177 201 182 177 201 195 209 218 152 213 216 230 185
173 164 157 142 149 155 171 158 163 183 184 166 155 152 173 146 142 155 142 153 156 169 167 165 170 160 172 162 162 164 162 136 155 166 166 186 180 193 193 203 212 157 220 223 212 217 240
175 173 162 147 141 161 157 169 170 156 157 172 156 171 148 146 158 174 181 152 166 155 161 157 166 161 154 156 168 167 183 163 182 181 183 192 187 196 185 192 196 180 204 199 162 221 227
180 177 169 169 149 174 159 146 164 157 168 170 165 163 157 162 163 154 150 166 179 160 159 146 173 151 150 161 162 157 167 181 174 175 184 158 186 179 176 171 207 195 177 206 201 223 217
173 187 184 163 187 169 151 144 170 153 173 175 164 159 149 179 178 165 174 171 144 169 162 146 142 167 168 156 151 163 168 160 181 180 172 179 189 197 192 199 193 179 204 183 199 210 204
167 182 180 189 177 171 164 166 157 165 149 162 163 168 139 163 164 133 143 145 165 129 151 166 160 175 142 147 166 159 178 167 152 167 188 172 153 180 181 182 206 205 193 178 200 198 210
254 218 186 173 210 177 169 169 168 173 173 157 161 174 174 164 171 135 159 168 164 163 163 159 164 179 165 167 162 175 166 177 178 177 165 155 173 181 188 184 186 201 199 205 183 216 206
179 218 210 206 206 197 166 157 180 160 154 163 159 159 167 163 153 134 171 161 155 150 160 169 159 162 168 159 163 173 173 172 173 183 173 183 184 177 184 186 193 199 202 209 209 182 218
151 219 163 165 204 211 164 178 182 176 148 165 155 160 157 152 164 160 168 165 159 167 154 156 159 159 159 148 175 169 171 169 170 180 185 176 179 181 183 188 193 194 198 202 209 215 226
176 175 171 170 180 177 163 146 147 162 163 155 171 155 167 158 163 161 178 159 163 163 160 162 157 165 164 173 174 170 169 170 181 182 184 190 180 193 188 198 186 193 193 200 211 216 227
166 182 177 187 180 158 174 173 172 168 169 166 156 147 169 156 150 158 156 151 154 158 175 162 163 169 165 175 176 174 175 181 180 179 187 194 195 192 194 202 190 191 205 192 203 211 223
200 181 167 164 163 159 162 163 160 155 160 157 154 148 152 166 162 169 158 162 159 168 162 166 174 181 181 183 179 190 193 192 188 187 183 200 210 209 180 192 192 194 209 219 213 218 227
178 184 159 171 149 150 177 162 166 155 156 143 149 170 176 171 176 175 167 175 171 151 175 177 175 177 176 183 168 193 177 207 191 194 211 207 229 224 195 192 198 207 215 217 221 217 229
163 173 155 164 150 176 174 153 172 163 174 173 155 174 152 172 194 183 163 165 199 182 184 184 194 196 192 172 177 181 207 227 239 228 228 230 239 218 210 209 234 234 227 226 235 232 240
170 173 156 152 160 169 161 180 160 167 164 177 167 170 176 184 155 179 191 177 164 193 195 203 198 187 208 217 215 214 237 202 204 235 200 208 216 238 215 254 230 229 234 232 233 240 153
161 173 171 169 173 159 171 178 176 144 190 183 175 191 183 201 174 198 203 198 176 187 204 200 207 235 244 215 217 206 215 213 273 250 265 235 278 258 264 260 247 260 261 235 264 255 266
165 169 171 160 178 171 181 169 177 172 187 189 181 191 190 171 197 203 203 203 207 216 210 208 201 215 222 228 256 263 290 283 282 282 281 272 280 276 275 268 273 285 276 272 279 283 322
167 172 182 182 182 176 180 187 176 190 179 187 190 202 204 207 201 198 216 234 223 230 238 246 236 236 287 289 293 294 294 291 284 281 286 284 284 289 298 300 302 333 325 307 240 264 302
168 186 186 186 179 185 200 191 192 192 193 200 199 173 183 210 169 207 230 190 226 253 267 270 293 289 291 293 291 285 286 290 296 293 316 322 319 333 331 330 326 317 304 296 298 295 292
195 185 189 193 186 200 188 181 177 178 205 197 218 229 214 231 242 234 279 305 303 304 301 304 300 298 298 299 300 306 319 330 322 321 311 313 278 304 300 298 292 298 294 292 289 286 260
191 199 189 158 182 188 199 205 144 220 217 211 169 239 237 251 313 314 314 313 317 308 314 299 308 339 331 327 320 314 311 298 284 280 273 276 274 280 277 281 264 256 258 256 250 246 248
190 203 183 183 202 209 189 220 226 231 243 241 233 277 352 364 360 354 357 351 347 336 326 321 311 297 288 288 284 280 281 278 274 275 291 286 274 270 272 311 376 384 319 274 267 265 303
203 207 210 219 160 220 223 234 246 384 376 380 365 356 336 325 334 312 306 303 301 298 292 292 332 322 318 317 328 320 327 324 341 374 351 363 355 366 362 357 364 361 372 377 372 368 375
212 198 191 201 245 250 399 386 384 374 368 377 371 459 444 421 431 474 437 387 406 426 413 401 386 379 387 391 381 370 356 346 326 359 356 358 355 344 337 340 343 350 358 358 357 350 353
Wind_Speed
18 13 20 16 10 15 18 22 18 13 14 17 16 17 17 22 27 37 38 28 45 42 43 48 53 44 54 55 63 55 60 68 61 63 68 60 62 62 61 61 56 53 51 53 57 47 50
19 25 18 20 19 13 15 13 19 17 20 16 17 22 24 26 27 27 22 32 33 36 38 41 40 41 44 47 48 53 53 52 52 51 48 53 56 57 55 54 50 53 51 49 49 51 49
19 27 22 19 25 17 15 16 14 22 17 8 13 12 35 25 17 40 36 37 44 43 40 34 43 46 51 52 52 50 53 52 56 56 56 58 59 55 57 51 50 53 45 44 46 51 49
26 27 19 20 28 23 13 14 19 22 15 24 19 27 39 21 23 43 28 27 37 35 33 35 42 47 44 39 45 49 49 55 58 59 59 48 60 51 54 45 54 42 42 44 42 42 45
31 27 27 27 23 25 28 29 19 18 16 6 42 21 17 45 25 21 19 37 29 31 39 35 48 40 44 45 48 49 54 55 54 54 56 47 57 56 56 49 58 46 47 53 51 47 34
27 27 27 28 32 32 24 29 33 34 35 31 19 32 16 33 22 18 20 17 38 34 25 47 34 39 41 40 36 43 42 36 48 50 53 46 53 59 50 49 46 47 57 43 47 46 37
31 29 32 33 36 38 30 37 32 24 16 31 36 39 22 36 37 32 40 46 35 28 37 36 34 46 38 46 50 50 52 60 56 55 56 44 49 52 47 45 41 59 42 41 48 45 43
36 37 36 42 39 37 40 38 40 41 40 32 46 30 45 45 44 28 30 45 36 46 47 49 41 45 52 55 51 51 51 55 55 51 54 49 53 52 51 47 49 54 44 46 61 49 41
40 39 42 40 45 37 40 42 39 45 40 35 39 40 45 41 37 46 48 37 34 43 39 64 48 57 58 55 57 60 58 60 58 57 53 61 59 59 58 60 52 47 59 43 48 49 46
50 47 42 46 40 40 48 50 46 46 43 42 41 48 47 36 34 43 39 38 56 42 40 60 63 56 58 64 65 63 63 66 67 58 62 56 62 60 56 63 59 58 52 58 45 48 48
49 52 45 44 46 47 47 46 49 47 50 47 49 49 47 52 45 47 56 60 44 52 59 45 57 57 64 66 64 68 69 68 69 65 69 64 70 60 61 64 68 60 59 65 55 49 47
41 38 50 47 39 47 40 48 50 45 47 51 46 48 49 52 52 52 51 53 50 53 56 58 63 62 64 64 68 70 71 74 74 71 71 74 69 68 70 69 68 69 65 63 65 60 49
44 38 39 40 39 44 45 49 47 50 54 55 53 48 51 48 54 56 57 57 62 68 67 64 65 68 68 73 73 72 73 75 76 74 71 72 72 70 73 74 76 74 74 71 67 64 61
51 43 42 45 37 40 44 48 48 49 48 55 50 49 49 56 58 56 60 61 64 68 72 72 71 74 76 77 77 77 76 77 78 78 74 72 74 79 77 77 77 77 78 79 75 71 71
51 45 43 41 39 40 41 46 48 47 49 50 56 55 59 58 64 68 72 64 71 75 75 75 78 77 79 83 85 81 82 82 84 82 81 83 73 83 81 82 80 82 85 84 85 78 75
53 50 47 47 46 49 49 50 52 51 51 53 59 65 63 65 70 71 72 75 78 81 83 80 82 87 85 88 88 87 87 88 86 83 88 93 87 84 84 84 85 85 87 88 90 87 84
54 54 50 48 46 49 54 52 52 53 54 55 61 71 69 80 79 81 81 82 84 87 88 89 91 93 95 94 94 100 100 99 92 94 87 100 99 89 82 86 90 92 93 95 94 93 91
58 59 49 56 58 56 67 61 64 61 62 70 68 82 85 84 90 91 87 94 91 91 97 98 97 98 98 100 92 104 97 107 99 100 109 108 106 96 87 88 91 94 94 97 99 96 96
50 61 55 63 66 70 72 65 75 71 79 75 75 86 84 89 100 95 91 92 105 98 102 101 108 108 105 101 105 105 112 117 114 113 109 106 102 98 96 96 99 99 98 99 104 100 94
64 68 64 67 69 75 74 88 74 80 80 87 86 85 95 103 94 97 103 94 98 107 109 115 113 108 113 121 119 112 113 105 106 107 105 105 102 102 99 99 101 100 100 100 103 102 55
65 74 76 77 82 78 85 92 93 82 106 98 91 106 99 119 95 119 120 115 102 109 111 110 114 127 125 109 107 107 108 107 108 107 107 108 101 101 97 99 103 103 101 100 107 107 112
72 75 81 79 94 89 101 91 99 97 110 109 102 110 110 93 120 128 126 125 128 133 120 118 107 114 116 120 120 110 109 106 103 103 105 104 101 100 93 98 103 102 100 101 102 102 88
81 82 99 103 104 98 104 108 99 115 110 110 117 129 128 127 122 115 133 135 132 135 134 132 128 125 116 116 112 106 104 102 100 98 103 101 101 102 93 98 97 82 82 86 92 90 86
83 104 103 104 99 107 121 116 120 121 123 130 130 103 112 120 87 125 138 109 132 134 121 121 116 114 111 109 108 103 101 102 103 101 101 96 97 91 88 84 82 79 81 84 83 83 86
113 101 106 117 105 129 111 103 106 107 134 115 142 144 136 142 143 139 130 122 119 116 115 112 113 110 107 106 107 106 103 95 92 89 89 87 89 86 85 83 84 81 82 82 82 81 82
111 123 111 97 105 117 133 140 72 148 144 132 94 149 145 140 119 121 118 117 115 112 113 108 109 102 101 98 97 96 92 91 90 88 89 88 87 86 86 87 84 82 84 85 85 82 84
107 130 100 105 137 142 119 147 146 151 152 146 136 135 124 120 109 111 106 102 99 100 102 101 100 101 101 98 96 95 93 92 90 90 86 88 89 88 88 76 56 48 72 86 85 84 71
131 139 142 150 85 144 145 150 148 119 118 114 113 110 111 114 103 103 103 102 99 98 100 101 90 91 92 89 83 83 78 76 68 56 60 54 55 48 49 52 48 47 43 43 45 46 42
136 131 118 126 147 148 116 114 113 113 113 103 101 42 48 55 55 28 28 64 50 33 37 42 54 57 51 44 46 51 56 60 66 51 47 46 44 50 53 52 50 45 41 41 41 44 43
Wind_Direction
354 329 279 333 337 259 262 258 264 291 275 265 266 265 267 266 269 266 268 281 268 271 273 273 276 278 277 276 276 280 281 283 285 286 286 286 287 288 289 289 287 285 283 281 282 279 283
282 345 340 277 263 321 302 310 269 284 268 283 272 269 271 270 272 271 287 271 272 274 278 277 277 278 278 279 280 280 283 287 293 296 291 290 287 287 288 291 287 286 283 278 271 279 277
305 339 330 337 255 321 316 281 294 274 280 343 307 281 266 280 309 268 276 278 277 278 282 289 277 277 277 280 282 291 295 297 292 285 285 285 286 293 283 285 287 287 281 277 274 270 275
318 329 316 303 271 271 289 294 278 291 286 272 284 269 267 302 303 268 305 313 288 295 308 304 297 283 302 303 300 300 300 287 299 297 288 301 300 299 285 299 279 290 282 283 275 270 269
313 319 310 311 297 304 305 285 302 284 304 268 266 281 279 279 295 293 313 289 289 304 292 293 278 295 304 305 304 302 289 292 297 300 298 312 300 299 300 300 276 293 283 277 276 275 272
302 306 298 299 303 306 293 291 301 300 300 300 282 282 300 290 302 307 301 318 294 303 322 287 316 308 297 304 313 312 307 315 295 296 297 321 304 296 308 297 299 297 273 287 285 279 270
297 287 293 303 303 302 287 299 291 279 287 277 296 300 278 291 292 280 297 301 287 297 299 300 299 294 300 294 293 294 292 283 290 294 293 310 301 305 308 308 303 271 296 291 282 281 281
285 285 285 298 308 286 297 282 285 293 293 284 293 274 296 295 292 295 309 297 286 295 298 294 298 297 294 292 299 297 315 291 311 304 308 313 304 307 298 298 295 293 293 287 280 282 276
281 276 282 278 297 276 289 300 286 293 284 282 285 282 288 285 291 294 299 287 295 288 288 293 301 293 293 294 295 294 299 315 299 297 307 294 304 297 295 291 301 292 290 296 287 288 282
292 286 273 291 271 271 294 302 278 289 279 277 276 285 296 294 290 283 301 286 294 292 284 287 296 299 298 292 293 296 301 293 308 302 294 305 310 312 301 306 295 285 296 287 289 289 281
305 286 284 276 276 278 281 281 286 286 295 285 281 286 303 282 288 288 293 292 289 283 284 281 289 300 291 293 294 291 307 296 292 295 307 295 292 297 295 291 308 302 286 283 285 282 282
299 277 281 289 271 278 281 284 284 282 285 289 290 292 296 290 300 281 285 292 290 293 289 285 297 306 287 292 292 302 292 302 300 299 291 290 297 300 301 296 295 300 295 292 281 289 272
310 287 281 280 276 274 289 290 281 291 296 294 294 297 304 297 280 288 300 289 283 284 294 301 294 285 294 286 289 295 295 294 295 298 293 299 299 293 298 297 298 298 294 291 286 278 279
303 297 295 295 289 281 288 285 283 289 291 300 288 291 284 283 294 288 300 297 286 293 282 285 286 285 286 288 296 289 290 289 292 296 295 291 297 295 295 295 295 293 291 288 286 285 279
299 301 298 295 294 292 289 286 286 292 292 282 299 280 299 287 293 293 302 291 294 292 288 288 284 289 289 294 292 288 289 289 295 293 295 296 289 295 293 292 291 291 288 287 285 284 279
304 304 307 302 303 294 302 301 302 297 299 297 283 282 298 285 284 287 286 282 286 289 296 284 287 290 286 290 289 288 287 290 287 287 293 295 293 292 291 289 287 285 284 283 283 282 281
298 301 308 304 302 297 299 298 290 281 286 285 282 283 286 295 292 292 284 285 284 291 287 288 292 293 292 292 291 296 295 293 290 289 285 293 293 290 285 287 286 287 286 284 281 281 279
307 307 292 302 284 284 303 291 296 281 284 284 281 295 298 294 301 299 291 296 292 284 292 292 290 290 289 294 290 295 289 295 288 288 292 291 289 287 283 283 284 282 279 278 276 276 278
292 298 282 298 290 303 302 283 299 291 298 292 284 296 284 292 298 293 283 284 298 291 291 291 296 296 291 287 287 288 295 293 289 289 288 287 285 285 285 284 279 277 276 277 277 276 275
299 300 288 286 293 301 294 305 288 295 291 298 290 292 294 297 283 292 299 288 288 296 295 298 296 296 296 296 292 291 291 288 288 287 287 285 284 283 284 276 277 276 276 276 276 276 277
292 300 300 300 303 292 301 303 302 285 303 300 294 301 295 303 287 301 300 299 284 294 297 296 295 295 294 292 290 287 287 285 286 284 283 283 282 280 277 277 275 275 274 275 276 276 277
291 299 301 295 305 301 303 295 300 297 303 302 293 302 298 282 299 300 300 298 297 293 294 292 287 292 294 293 291 285 285 285 284 284 282 280 281 278 276 276 277 277 276 275 277 279 279
297 302 305 304 303 301 301 301 296 304 302 300 300 301 299 297 296 296 295 294 294 294 294 294 293 293 288 286 287 286 286 285 285 284 284 283 282 281 281 281 280 281 280 279 274 276 279
299 303 301 302 301 301 304 305 304 303 301 301 299 299 297 294 295 298 297 295 293 292 289 289 286 286 285 285 285 286 286 285 285 284 283 282 283 282 283 280 279 279 279 279 278 277 277
302 303 305 309 305 306 303 296 298 299 297 295 298 296 296 297 296 296 290 288 287 286 286 286 284 284 284 283 283 283 284 284 284 284 284 284 282 283 282 280 279 279 277 276 275 275 275
307 307 307 301 301 302 300 300 298 298 297 298 302 295 295 294 292 288 287 285 284 284 283 284 283 282 283 283 284 284 284 284 283 283 283 283 281 281 280 279 275 274 273 273 273 274 275
306 306 302 299 303 303 301 301 300 298 297 296 296 291 283 283 283 282 284 283 283 282 282 281 281 282 284 283 284 284 283 282 283 283 282 281 280 280 279 279 277 279 276 272 273 274 274
306 305 305 303 305 300 299 297 296 283 283 284 284 285 285 286 286 285 284 284 284 283 282 281 281 282 281 283 282 283 282 282 281 276 279 277 277 277 276 278 281 279 278 275 274 274 272
305 301 305 303 301 300 289 288 286 284 283 282 282 260 265 271 276 270 266 274 276 268 268 270 271 272 276 278 278 277 276 278 279 277 277 276 274 275 275 276 276 275 273 273 271 272 272